Date,TemperatureHighF,TemperatureAvgF,TemperatureLowF,DewpointHighF,DewpointAvgF,DewpointLowF,HumidityHigh,HumidityAvg,HumidityLow,PressureMaxIn,PressureMinIn,WindSpeedMaxMPH,WindSpeedAvgMPH,GustSpeedMaxMPH,PrecipitationSumIn
2013-4-12,82,75,72,71,66,63,83,72,68,29.96,29.88,21,5,21,0.00
2013-4-13,76,73,68,70,66,62,92,79,70,29.97,29.85,31,4,31,0.30
2013-4-14,75,71,65,70,67,63,95,87,79,29.98,29.85,19,3,19,0.03
2013-4-15,78,70,65,70,66,63,96,89,71,30.07,29.93,8,1,8,0.09
2013-4-16,85,74,66,73,68,65,96,85,64,30.14,30.01,15,3,15,0.00
2013-4-17,84,74,67,72,68,63,94,81,62,30.19,30.08,20,4,20,0.00
2013-4-18,80,72,68,71,67,64,95,85,66,30.20,30.12,17,4,18,0.25
2013-4-19,77,69,66,72,67,64,97,94,82,30.17,30.06,19,4,19,0.69
2013-4-20,82,73,66,72,68,65,97,86,69,30.11,30.01,14,2,14,0.13
2013-4-21,78,71,67,71,68,65,97,89,77,30.06,29.97,7,1,8,0.24
2013-4-22,77,69,65,71,67,64,97,94,71,30.07,29.94,13,1,14,0.11
2013-4-23,75,68,65,69,66,63,98,91,75,30.10,30.00,8,0,8,0.45
2013-4-24,79,71,65,70,67,63,98,88,70,30.13,30.04,14,2,14,0.05
2013-4-25,82,73,67,73,68,65,97,84,67,30.10,30.02,18,4,18,0.01
2013-4-26,84,74,68,69,66,64,92,77,54,30.09,30.00,23,5,23,0.01
2013-4-27,88,75,68,70,66,63,88,76,51,30.06,29.97,17,4,18,0.00
2013-4-28,87,76,70,71,67,63,88,74,56,30.03,29.90,29,5,29,0.00
2013-4-29,87,77,71,72,68,64,86,75,55,29.99,29.89,16,3,16,0.00
2013-4-30,80,74,69,73,69,66,94,86,71,30.06,29.93,13,1,13,0.04
2013-5-1,85,75,68,72,68,66,95,80,61,30.11,30.00,20,3,20,0.01
2013-5-2,83,73,68,74,69,66,94,88,70,30.11,30.04,23,2,23,0.06
2013-5-3,84,74,67,72,68,65,95,81,55,30.10,30.00,14,1,14,0.00
2013-5-4,81,71,68,72,68,65,97,90,68,30.03,29.92,13,1,13,0.64
2013-5-5,76,69,66,72,67,64,97,93,86,29.99,29.89,9,1,9,0.31
2013-5-6,78,70,64,67,63,60,92,78,63,30.01,29.92,14,2,14,0.00
2013-5-7,77,70,62,64,62,58,87,76,59,30.03,29.94,15,2,15,0.00
2013-5-8,81,72,64,69,65,60,95,79,61,30.05,29.95,10,1,10,0.04
2013-5-9,79,71,66,70,66,64,96,86,71,30.13,30.00,10,1,10,0.04
2013-5-10,70,67,66,69,66,64,97,94,90,30.19,30.07,13,0,13,0.26
2013-5-11,77,69,66,68,64,62,92,84,70,30.18,30.10,12,1,12,0.01
2013-5-12,74,69,65,71,66,62,96,90,80,30.19,30.08,13,2,14,0.46
2013-5-13,76,71,68,72,69,66,98,94,82,30.13,30.06,19,4,19,2.13
2013-5-14,84,74,70,73,70,68,96,87,67,30.18,30.07,26,5,26,0.08
2013-5-15,83,74,69,74,69,66,95,86,66,30.20,30.12,18,2,18,0.09
2013-5-16,83,75,69,71,68,66,93,81,65,30.18,30.09,19,4,21,0.00
2013-5-17,82,74,68,70,67,65,91,80,60,30.14,30.04,19,2,19,0.02
2013-5-18,82,73,67,72,68,63,91,83,69,30.10,30.00,13,1,13,0.02
2013-5-19,76,69,64,70,66,61,95,89,77,30.08,29.97,13,1,13,0.37
2013-5-20,76,68,61,67,62,55,91,80,68,30.02,29.94,10,1,11,0.01
2013-5-21,79,69,64,70,65,60,95,87,65,30.03,29.95,11,1,11,0.19
2013-5-22,80,72,63,71,66,61,94,83,68,30.08,29.96,9,1,9,0.00
2013-5-23,82,74,68,74,70,65,92,86,73,30.11,30.01,14,1,14,0.00
2013-5-24,84,76,68,74,70,66,96,84,65,30.12,30.06,15,2,15,0.22
2013-5-25,82,74,69,74,70,67,94,88,71,30.15,30.06,17,3,17,0.15
2013-5-26,81,74,69,73,69,66,93,85,69,30.15,30.07,18,3,18,0.12
2013-5-27,79,72,69,72,68,65,95,87,76,30.15,30.08,23,3,23,0.19
2013-5-28,82,73,67,74,69,65,96,86,69,30.13,30.06,19,2,20,0.36
2013-5-29,80,73,68,75,70,67,97,90,81,30.12,30.04,12,1,12,0.15
2013-5-30,83,74,68,75,70,65,95,87,73,30.08,29.97,15,2,15,0.11
2013-5-31,85,76,70,76,71,67,95,85,70,30.10,29.98,22,4,22,0.00
2013-6-1,85,75,70,73,70,67,95,86,64,30.15,30.04,15,4,15,0.10
2013-6-2,80,74,70,74,70,68,97,89,75,30.17,30.09,19,4,19,0.12
2013-6-3,82,75,70,71,68,65,90,77,62,30.16,30.08,25,5,27,0.00
2013-6-4,83,75,70,72,68,65,92,78,61,30.12,30.04,25,4,25,0.01
2013-6-5,82,75,69,71,68,64,94,79,60,30.12,30.05,20,3,20,0.05
2013-6-6,82,74,69,71,67,64,93,81,64,30.11,30.02,21,3,21,0.03
2013-6-7,80,73,68,70,68,66,94,84,71,30.11,30.02,21,3,21,0.06
2013-6-8,83,75,69,71,68,66,92,81,64,30.12,30.03,19,4,19,0.05
2013-6-9,82,75,70,72,68,67,92,82,65,30.14,30.07,21,4,21,0.04
2013-6-10,84,75,70,72,69,67,93,83,66,30.12,30.04,16,3,16,0.05
2013-6-11,82,73,69,73,69,67,95,86,69,30.08,30.01,18,3,18,0.09
2013-6-12,82,74,70,73,70,68,96,86,69,30.15,30.05,23,5,23,0.26
2013-6-13,79,73,70,72,70,68,95,91,77,30.17,30.11,21,4,21,0.30
2013-6-14,82,74,69,72,69,67,95,84,64,30.16,30.05,18,3,21,0.13
2013-6-15,78,71,68,73,69,66,96,92,80,30.10,30.00,19,3,21,0.34
2013-6-16,81,73,67,74,69,66,97,88,72,30.08,29.99,17,3,17,0.41
2013-6-17,80,73,69,74,69,67,95,90,77,30.15,30.03,20,4,21,0.27
2013-6-18,80,74,69,74,70,68,94,88,77,30.13,30.06,19,4,19,0.16
2013-6-19,83,75,68,73,69,66,95,85,70,30.13,30.07,16,2,16,0.07
2013-6-20,82,74,68,72,68,65,95,83,65,30.12,30.04,15,2,15,0.10
2013-6-21,80,73,68,73,70,67,96,89,76,30.11,30.04,15,2,15,0.51
2013-6-22,78,73,69,73,70,67,96,90,80,30.18,30.06,22,4,22,0.31
2013-6-23,78,72,69,74,70,68,96,91,80,30.19,30.12,21,4,21,0.21
2013-6-24,80,72,68,73,69,67,98,88,69,30.17,30.11,9,2,16,0.14
2013-6-25,76,72,68,71,68,65,95,88,78,30.14,30.08,14,1,14,0.09
2013-6-26,80,73,67,72,68,64,97,86,72,30.13,30.05,11,2,12,0.09
2013-6-27,84,74,67,72,68,64,95,83,61,30.09,30.01,15,2,15,0.06
2013-6-28,82,75,68,73,70,67,95,84,69,30.07,30.00,17,2,17,0.05
2013-6-29,84,74,69,73,69,67,96,85,64,30.08,29.99,18,2,18,0.08
2013-6-30,84,76,68,73,70,67,95,83,66,30.09,30.02,16,2,16,0.05
2013-7-1,83,75,69,74,70,67,95,85,68,30.08,30.02,11,1,12,0.06
2013-7-2,81,73,68,74,70,66,96,88,73,30.07,29.98,18,1,18,0.14
2013-7-3,82,73,68,74,69,67,96,87,71,30.05,29.98,18,2,18,0.21
2013-7-4,83,75,69,73,69,66,94,82,66,30.08,30.00,15,2,15,0.01
2013-7-5,84,76,68,74,69,65,94,82,66,30.08,30.00,11,1,11,0.02
2013-7-6,84,75,68,73,70,67,95,85,67,30.07,30.00,9,1,9,0.02
2013-7-7,84,76,68,73,69,65,92,81,64,30.04,29.93,15,1,15,0.00
2013-7-8,88,77,69,75,71,67,94,82,61,30.07,29.95,19,3,19,0.02
2013-7-9,86,77,72,74,71,69,93,81,63,30.21,30.03,27,6,27,0.05
2013-7-10,83,76,72,74,71,68,94,85,67,30.21,30.15,24,4,24,0.11
2013-7-11,83,74,70,74,70,67,94,85,67,30.18,30.08,23,4,23,0.17
2013-7-12,80,73,68,73,70,66,95,90,76,30.13,30.04,19,2,19,0.40
2013-7-13,84,75,69,73,69,66,94,83,63,30.07,29.99,15,2,15,0.02
2013-7-14,86,76,69,72,68,65,93,79,58,30.03,29.94,20,3,20,0.11
2013-7-15,85,75,69,73,69,66,93,82,64,30.05,29.96,22,4,22,0.02
2013-7-16,84,76,70,72,70,67,91,81,67,30.04,29.96,15,3,15,0.00
2013-7-17,87,76,70,73,69,67,93,81,57,30.06,29.98,20,4,20,0.05
2013-7-18,83,74,69,74,69,66,93,85,66,30.10,30.01,21,3,21,0.11
2013-7-19,84,74,68,75,71,66,97,89,71,30.12,30.02,21,2,21,0.30
2013-7-20,85,76,69,73,70,67,95,84,64,30.12,30.04,18,2,18,0.20
2013-7-21,83,74,69,74,70,67,95,87,68,30.08,29.98,15,2,15,0.22
2013-7-22,79,75,68,72,69,65,93,83,77,30.06,30.01,9,2,9,0.00
2013-7-23,79,78,76,72,71,70,82,79,77,30.05,30.04,3,2,9,0.00
2013-7-24,79,78,75,72,71,70,83,79,77,30.05,30.04,2,2,9,0.00
2013-7-25,79,78,76,72,71,70,82,79,77,30.05,30.04,2,2,9,0.00
2013-7-26,87,78,72,72,70,68,90,77,59,30.08,30.02,19,3,19,0.00
2013-7-27,84,75,70,73,70,67,95,85,60,30.09,30.01,20,3,20,0.14
2013-7-28,82,75,71,75,70,65,94,85,70,30.07,29.98,19,2,19,0.09
2013-7-29,79,75,73,77,74,72,97,95,90,30.02,29.92,16,2,17,0.68
2013-7-30,86,77,73,79,74,71,97,92,74,30.17,29.85,23,3,23,1.22
2013-7-31,85,77,73,76,73,70,96,87,73,30.17,30.11,22,4,22,0.05
2013-8-1,83,75,71,74,70,68,93,84,70,30.16,30.06,20,4,20,0.07
2013-8-2,82,74,69,75,71,67,96,88,71,30.11,30.03,18,2,18,0.23
2013-8-3,83,75,70,74,70,68,95,85,69,30.10,30.02,17,3,17,0.07
2013-8-4,84,76,70,74,70,67,94,83,67,30.09,30.00,19,3,19,0.04
2013-8-5,83,75,70,76,71,68,96,87,71,30.07,29.99,20,2,20,0.23
2013-8-6,84,76,70,73,70,68,96,83,64,30.08,30.01,19,2,19,0.21
2013-8-7,84,76,70,73,69,67,94,81,66,30.10,30.02,17,2,17,0.02
2013-8-8,84,76,70,73,70,67,94,82,62,30.12,30.04,16,2,16,0.10
2013-8-9,84,75,69,75,71,67,95,88,71,30.12,30.01,17,2,17,0.18
2013-8-10,82,75,70,75,71,66,96,89,71,30.08,30.02,18,3,18,0.37
2013-8-11,79,74,72,76,72,70,97,94,86,30.10,30.03,22,4,22,0.51
2013-8-12,84,76,71,73,70,68,94,84,64,30.13,30.06,18,3,18,0.04
2013-8-13,84,76,71,73,70,68,92,83,68,30.12,30.02,18,3,18,0.04
2013-8-14,83,75,70,74,70,67,95,86,70,30.08,29.98,15,3,19,0.10
2013-8-15,85,76,71,73,70,67,91,80,61,30.08,30.02,24,4,24,0.01
2013-8-16,84,75,71,74,70,67,93,84,68,30.11,30.02,20,4,20,0.05
2013-8-17,85,76,70,73,69,65,88,79,65,30.09,30.00,22,4,22,0.00
2013-8-18,84,76,71,73,70,67,94,81,63,30.08,30.00,19,3,19,0.09
2013-8-19,85,76,69,75,70,66,96,83,65,30.08,29.98,15,2,15,0.15
2013-8-20,83,74,68,74,69,64,92,84,70,30.05,29.92,15,2,15,0.00
2013-8-21,81,73,68,75,70,66,95,90,79,30.00,29.92,11,1,11,0.24
2013-8-22,85,76,69,75,71,67,94,84,69,30.04,29.92,15,2,15,0.00
2013-8-23,88,78,71,73,70,68,91,78,56,30.05,29.94,18,2,18,0.00
2013-8-24,85,76,70,74,70,68,93,83,65,30.08,29.98,14,2,14,0.03
2013-8-25,88,78,71,73,70,67,92,78,53,30.13,30.04,24,3,24,0.02
2013-8-26,85,77,71,74,70,68,93,81,61,30.14,30.07,19,3,19,0.08
2013-8-27,84,76,70,72,68,66,90,77,61,30.14,30.05,19,3,19,0.00
2013-8-28,87,76,67,73,69,62,95,80,61,30.08,29.95,9,0,11,0.33
2013-8-29,83,75,69,75,70,67,96,86,71,30.00,29.91,12,1,12,0.03
2013-8-30,87,77,70,74,70,67,93,79,58,30.08,29.95,18,2,18,0.01
2013-8-31,84,76,70,75,70,67,94,83,67,30.09,29.99,15,2,15,0.06
2013-9-1,85,76,70,72,70,67,94,82,57,30.06,29.98,24,4,24,0.15
2013-9-2,84,76,70,72,69,67,92,78,60,30.08,29.97,20,3,20,0.03
2013-9-3,84,77,71,74,70,67,91,80,63,30.07,29.97,13,1,13,0.00
2013-9-4,85,76,69,73,69,66,91,80,58,30.06,29.97,12,1,12,0.00
2013-9-5,87,76,68,72,68,64,92,77,53,30.11,30.00,18,2,18,0.00
2013-9-6,86,79,69,73,70,65,87,74,61,30.10,30.02,15,2,16,0.00
2013-9-7,83,82,82,72,71,70,70,69,66,30.02,30.02,4,3,9,0.00
2013-9-8,83,82,82,72,71,70,70,69,66,30.02,30.02,4,3,9,0.00
2013-9-9,83,82,82,72,71,70,70,69,66,30.02,30.02,4,3,9,0.00
2013-9-10,83,82,82,72,71,70,70,69,66,30.02,30.02,4,3,9,0.00
2013-9-11,84,82,82,72,71,70,70,69,66,30.02,30.02,4,3,10,0.00
2013-9-12,83,81,73,72,71,70,96,73,66,30.03,30.00,7,2,9,0.66
2013-9-13,79,74,71,74,72,68,97,92,81,30.00,29.92,18,2,18,0.17
2013-9-14,85,77,71,74,71,69,94,84,66,29.98,29.90,19,2,19,0.11
2013-9-15,85,76,71,79,72,69,97,88,71,30.04,29.93,19,2,19,0.15
2013-9-16,84,76,72,75,72,69,95,85,71,30.11,30.00,12,2,16,0.09
2013-9-17,79,74,71,74,71,69,96,90,77,30.09,30.01,19,2,19,0.32
2013-9-18,82,75,71,75,72,69,97,89,72,30.05,29.98,16,2,16,1.02
2013-9-19,86,76,70,74,71,68,95,85,66,30.09,29.99,19,2,19,0.07
2013-9-20,84,75,71,75,71,68,93,88,68,30.10,30.03,16,2,16,0.13
2013-9-21,80,75,70,73,70,68,93,85,73,30.08,30.00,13,3,18,0.08
2013-9-22,84,76,70,73,70,67,93,83,64,30.07,30.00,18,2,18,0.04
2013-9-23,82,75,70,75,71,67,94,86,73,30.06,29.97,12,1,12,0.04
2013-9-24,74,72,71,71,70,68,94,92,90,30.02,29.98,11,2,11,0.06
2013-9-25,73,72,72,70,70,69,93,92,92,30.02,30.00,3,2,9,0.00
2013-9-26,81,73,71,75,71,69,97,92,78,30.04,29.95,19,2,19,1.18
2013-9-27,84,76,71,74,70,68,94,84,66,30.13,29.98,21,4,21,0.07
2013-9-28,84,75,71,75,70,68,94,85,67,30.14,30.06,20,3,20,0.09
2013-9-29,84,75,70,73,70,68,95,85,68,30.12,30.00,16,2,16,0.47
2013-9-30,80,72,68,75,70,66,97,92,81,30.07,29.98,17,2,17,0.85
2013-10-8,80,80,71,73,73,69,93,78,78,30.05,30.04,5,5,13,0.00
2013-10-9,80,80,80,73,73,73,78,78,78,30.04,30.04,5,5,13,0.00
2013-10-10,80,80,80,73,73,73,78,78,78,30.04,30.04,5,5,13,0.00
2013-10-11,80,80,80,73,73,73,78,78,78,30.04,30.04,5,5,13,0.00
2013-10-12,80,80,80,73,73,73,78,78,78,30.04,30.04,5,5,13,0.00
2013-10-13,80,80,80,73,73,73,78,78,78,30.04,30.04,5,5,13,0.00
2013-10-14,80,80,80,73,73,73,78,78,78,30.04,30.04,5,5,13,0.00
2013-10-15,82,74,68,74,69,66,95,87,73,30.01,29.92,15,1,15,0.01
2013-10-16,84,74,69,74,69,66,94,85,66,30.02,29.93,18,2,18,0.00
2013-10-17,84,74,68,73,69,66,92,85,67,30.03,29.94,14,1,14,0.00
2013-10-18,84,74,67,73,68,61,92,81,67,30.00,29.90,15,1,15,0.00
2013-10-19,81,74,69,72,68,65,96,85,63,29.93,29.85,17,2,17,0.40
2013-10-20,81,74,68,70,66,63,88,79,64,29.99,29.88,10,0,10,0.00
2013-10-21,84,74,68,70,67,63,88,79,53,30.02,29.91,9,0,9,0.00
2013-10-22,80,73,69,74,70,66,96,90,76,30.03,29.96,11,1,11,0.06
2013-10-23,78,72,70,74,70,67,96,92,83,30.06,29.96,11,1,13,0.14
2013-10-24,82,74,68,73,68,65,93,84,69,30.03,29.92,22,2,22,0.00
2013-10-25,82,74,69,72,69,66,92,84,68,30.03,29.92,12,2,13,0.00
2013-10-26,85,75,68,75,70,66,92,86,69,30.03,29.94,13,2,13,0.00
2013-10-27,83,77,72,75,71,69,91,84,72,30.04,29.95,11,2,11,0.00
2013-10-28,84,75,72,75,68,66,91,81,74,30.08,29.93,8,0,8,0.00
2013-10-29,85,76,71,75,70,68,94,84,66,30.09,29.99,14,2,14,0.02
2013-10-30,83,75,70,72,69,65,95,83,57,30.13,30.03,14,2,17,0.13
2013-10-31,82,74,69,74,70,67,96,89,75,30.14,30.05,13,2,13,0.42
2013-11-1,78,73,69,73,70,67,96,90,80,30.14,30.02,16,1,16,0.24
2013-11-2,80,73,70,73,70,67,96,88,72,30.13,30.04,17,2,17,0.20
2013-11-3,81,73,69,73,69,67,94,87,71,30.13,30.03,19,2,19,0.08
2013-11-4,78,71,68,72,68,66,96,91,76,30.09,29.99,17,1,17,0.50
2013-11-5,80,72,67,74,69,66,98,90,74,30.06,29.97,12,1,12,0.83
2013-11-6,80,71,67,72,68,66,97,90,74,30.03,29.91,13,1,13,0.87
2013-11-7,77,71,65,73,68,63,97,92,82,30.02,29.91,10,1,10,0.18
2013-11-8,81,72,68,75,70,66,97,92,78,30.03,29.92,13,2,13,1.58
2013-11-9,72,70,69,71,69,66,97,95,87,29.98,29.89,18,2,18,1.02
2013-11-10,74,71,67,69,65,59,95,82,72,30.07,29.93,22,2,22,0.22
2013-11-11,75,70,65,63,61,59,84,74,62,30.06,29.96,16,1,16,0.02
2013-11-12,72,66,62,66,62,59,92,86,77,30.07,29.97,9,1,12,0.15
2013-11-13,73,65,60,66,61,57,94,88,75,30.05,29.96,9,0,9,0.06
2013-11-14,79,70,61,67,63,57,92,79,60,30.03,29.92,10,1,10,0.01
2013-11-15,78,73,70,75,71,67,97,93,85,30.08,29.96,12,1,12,0.05
2013-11-16,80,74,70,74,71,68,95,89,78,30.09,29.98,13,2,13,0.00
2013-11-17,84,75,71,72,70,68,92,86,66,30.04,29.92,19,3,19,0.00
2013-11-18,81,74,68,73,69,66,93,85,72,29.98,29.89,11,1,11,0.00
2013-11-19,88,76,68,71,67,63,91,75,51,29.98,29.84,20,3,20,0.00
2013-11-20,81,74,70,72,68,64,91,83,67,30.01,29.87,19,2,19,0.01
2013-11-21,85,74,68,71,67,64,89,79,58,30.03,29.93,14,1,14,0.00
2013-11-22,80,72,68,71,67,64,90,83,70,30.07,29.99,13,1,13,0.04
2013-11-23,74,69,65,69,64,59,95,85,73,30.08,29.97,11,0,11,0.24
2013-11-24,78,70,64,68,63,58,86,79,65,30.06,29.94,13,1,13,0.00
2013-11-25,80,71,66,69,64,61,87,80,69,30.11,29.98,20,2,20,0.00
2013-11-26,80,72,67,69,66,61,91,82,67,30.14,30.00,17,3,18,0.00
2013-11-27,80,72,66,70,66,62,90,83,68,30.13,29.97,14,2,14,0.00
2013-11-28,82,72,66,68,65,61,90,79,58,30.04,29.93,17,2,17,0.00
2013-11-29,82,73,68,69,67,61,92,81,62,29.96,29.82,28,4,28,0.04
2013-11-30,75,73,70,72,68,59,97,87,60,29.92,29.78,34,5,34,1.90
2013-12-1,77,69,66,69,66,63,98,91,72,30.00,29.88,25,1,25,2.38
2013-12-2,79,71,65,72,66,60,95,87,75,30.02,29.93,9,0,11,0.00
2013-12-3,80,72,67,74,69,65,95,90,77,30.00,29.89,9,1,9,0.16
2013-12-4,83,72,68,73,68,65,95,88,65,30.01,29.90,14,1,14,0.00
2013-12-5,80,72,67,71,67,64,92,85,71,30.04,29.93,8,1,8,0.00
2013-12-6,73,70,66,71,68,63,97,93,88,30.06,29.94,10,1,10,0.85
2013-12-7,82,72,67,71,67,63,96,86,65,30.00,29.90,12,2,12,0.01
2013-12-8,79,72,67,74,69,63,96,89,81,30.02,29.92,18,1,19,0.40
2013-12-9,83,75,71,75,71,68,94,87,74,30.12,29.98,12,2,12,0.00
2013-12-10,78,73,70,74,71,68,97,94,85,30.11,30.00,11,1,11,0.12
2013-12-11,80,73,69,73,69,66,97,86,72,30.09,29.95,18,3,18,0.02
2013-12-12,82,73,67,71,67,64,92,82,61,30.09,29.97,15,2,15,0.00
2013-12-13,80,72,68,73,68,65,96,88,72,30.08,29.96,14,1,14,0.05
2013-12-14,79,72,68,72,69,66,95,88,77,30.02,29.90,12,1,12,0.04
2013-12-15,78,70,63,69,66,62,97,87,69,30.04,29.85,28,2,28,1.21
2013-12-16,80,70,65,71,66,62,95,88,70,30.03,29.93,8,0,8,0.04
2013-12-17,78,70,65,69,65,62,93,84,66,30.09,29.98,14,1,14,0.00
2013-12-18,76,70,65,70,66,63,96,90,77,30.10,29.99,13,1,13,0.08
2013-12-19,77,70,67,70,67,65,96,91,75,30.07,29.99,20,3,20,0.77
2013-12-20,81,71,67,71,68,65,96,88,65,30.07,29.98,15,2,15,0.21
2013-12-21,78,70,67,73,67,64,94,90,79,30.05,29.96,10,1,10,0.02
2013-12-22,78,70,65,71,66,62,94,88,77,30.04,29.94,8,0,8,0.00
2013-12-23,80,71,67,72,67,65,96,89,73,30.11,29.99,17,2,17,0.22
2013-12-24,78,70,67,72,67,65,96,91,76,30.13,30.03,19,1,19,0.32
2013-12-25,78,70,66,71,66,64,94,88,72,30.11,30.00,13,1,13,0.02
2013-12-26,78,70,66,70,66,63,95,87,73,30.07,29.96,14,1,14,0.07
2013-12-27,77,70,66,70,66,64,95,87,70,30.06,29.95,18,2,18,0.13
2013-12-28,77,71,67,70,67,65,95,88,75,30.05,29.92,13,1,13,0.02
2013-12-29,73,70,65,65,64,63,94,80,73,30.07,29.98,12,1,12,0.07
2013-12-30,73,69,64,67,64,62,95,84,73,30.06,29.97,11,1,11,0.12
2013-12-31,76,68,64,69,65,61,95,89,78,30.05,29.93,11,1,12,0.02
2014-1-1,81,71,64,69,65,60,93,84,63,29.98,29.86,8,1,8,0.00
2014-1-2,84,73,65,71,67,62,96,83,58,29.89,29.69,24,3,24,0.44